This is the latest recevied weather packets stored in our database for station/object DB0OHA-13. If no packets are shown the sender has not sent any weather packets the latest 10 day(s).
| Time | Temp. | Humidity | Pressure | Rain* | Wind** | Luminosity | Snow |
|---|---|---|---|---|---|---|---|
| 1777572071 | 14.44° C | 47% | 1028.5 hPa | 0 mm | - | 43 W/m² | - |
| 1777571471 | 15° C | 49% | 1028.5 hPa | 0 mm | - | 70 W/m² | - |
| 1777570871 | 15° C | 47% | 1028.6 hPa | 0 mm | - | 97 W/m² | - |
| 1777570271 | 15.56° C | 47% | 1028.6 hPa | 0 mm | - | 119 W/m² | - |
| 1777569671 | 15.56° C | 46% | 1028.5 hPa | 0 mm | - | 144 W/m² | - |
| 1777569070 | 15.56° C | 46% | 1028.6 hPa | 0 mm | - | 140 W/m² | - |
| 1777568471 | 15.56° C | 45% | 1028.6 hPa | 0 mm | - | 162 W/m² | - |
| 1777567870 | 16.11° C | 45% | 1028.6 hPa | 0 mm | - | 194 W/m² | - |
| 1777567270 | 16.11° C | 44% | 1028.6 hPa | 0 mm | - | 214 W/m² | - |
| 1777566670 | 16.11° C | 44% | 1028.6 hPa | 0 mm | - | 237 W/m² | - |
| 1777566070 | 16.67° C | 43% | 1028.6 hPa | 0 mm | - | 282 W/m² | - |
| 1777565470 | 16.67° C | 43% | 1028.6 hPa | 0 mm | - | 293 W/m² | - |
| 1777564270 | 16.67° C | 42% | 1028.6 hPa | 0 mm | - | 338 W/m² | - |
| 1777562469 | 16.67° C | 42% | 1028.8 hPa | 0 mm | - | 419 W/m² | - |
| 1777561269 | 17.22° C | 41% | 1029 hPa | 0 mm | - | 470 W/m² | - |
| 1777560674 | 16.67° C | 40% | 1028.9 hPa | 0 mm | - | 498 W/m² | - |
| 1777559474 | 16.67° C | 40% | 1029.1 hPa | 0 mm | - | 550 W/m² | - |
| 1777558874 | 16.67° C | 40% | 1029.1 hPa | 0 mm | - | 561 W/m² | - |
| 1777558274 | 17.22° C | 39% | 1029.2 hPa | 0 mm | - | 569 W/m² | - |
| 1777557674 | 17.22° C | 39% | 1029.3 hPa | 0 mm | - | 603 W/m² | - |
| 1777557074 | 17.22° C | 40% | 1029.3 hPa | 0 mm | - | 615 W/m² | - |
| 1777556474 | 17.78° C | 37% | 1029.4 hPa | 0 mm | - | 642 W/m² | - |
| 1777555874 | 17.22° C | 38% | 1029.6 hPa | 0 mm | - | 651 W/m² | - |
| 1777555273 | 17.22° C | 36% | 1029.6 hPa | 0 mm | - | 656 W/m² | - |
| 1777554673 | 17.22° C | 38% | 1029.7 hPa | 0 mm | - | 681 W/m² | - |
* Rain latest hour (hover to see other rain measurements)
** Current wind speed in m/s (hover to see current wind gust speed)